Location: Centerville
(32.8776°N, 96.6203°W)
Time: 13:09:20
(UTC+00:00)

Cosmos 1766 - Pass Details

Date: 17 June 2021
Orbit: 521 x 542 km, 82.5° (Epoch: 30 July)

Event Time Altitude Azimuth Distance (km) Brightness Sun altitude
Rises 02:23:46 0° 356° (N) 2,651 7.4 -9.2°
Reaches altitude 10° 02:25:56 10° 359° (N) 1,760 6.4 -9.5°
Maximum altitude 02:29:46 70° 83° (E) 556 3.2 -10.2°
Drops below altitude 10° 02:33:36 10° 168° (SSE) 1,754 5.4 -10.8°
Enters shadow 02:33:54 - 168° (SSE) 1,871 5.6 -10.9°
